Погода в Белых Берегах

Россия / Брянская область     53°12′26″N   34°39′46″E
темп.,
°C
ветер,
м/с
пор.,
м/с
влажн.,
%
обл.,
%
осадки,
мм/ч
давл.,
гПа
погр.,
м
18 мая, вт
вт1800:00+18юв4138599 0.4 1004470
03:00+16юв399459 0.5 1005252
06:00+16юв259734 1.0 1004140
09:00+20юв2382100 1.4 1004515
12:00+24юв596595 0.8 10031507
15:00+22ююв4771100 2.0 10031147
18:00+20вюв3979100 0.9 1001530
21:00+15юв4994100 6.1 1003366
19 мая, ср
ср1900:00+14юв41295100 0.9 1003479
03:00+13юв31097100 0.9 1003350
06:00+13юв310966 0.0 1004388
09:00+17ююв587788 0.0 1005861
12:00+19ююв575999 0.1 10051527
15:00+20ююв5659100 0.6 10051424
18:00+17ююв2577100 0.3 1005371
21:00+14ююв2494100 1.0 100598
20 мая, чт
чт2000:00+13сз2498100 0.9 1003109
03:00+13св379996 2.1 1002395
06:00+12в259775 0.4 1000331
09:00+13юв2496100 0.7 1000386
12:00+12юз61197100 1.4 1001913
15:00+11зюз51195100 2.8 1006709
18:00+11зюз4892100 0.1 1008634
21:00+10з3894100 0.1 1010546
21 мая, пт
пт2100:00+9з399243 0.0 1012551
03:00+6зюз279898 0.0 1013195
06:00+7зюз3895100 0.0 1014284
09:00+13сз466884 0.0 1015846
12:00+17ссз355184 0.0 10151498
15:00+19с2343100 0.0 10152193
18:00+16з1264100 0.0 101598
21:00+13в1175100 0.1 101719
22 мая, сб
сб2200:00+11ю2488100 0.0 101786
03:00+10юв0088100 0.0 101810
06:00+11св2389100 0.0 101798
09:00+15в3567100 0.0 1018749
12:00+14в4779100 0.6 1018709
15:00+12всв2695100 3.8 1018454
18:00+15всв368379 0.0 1017616
21:00+11в4109733 0.0 1016334